Year,Month,Day,Hour,Minute,Value (Times are PST for windgust in km/hr)
2010,11,23,00,00,43.50
2010,11,23,00,01,29.00
2010,11,23,00,02,30.60
2010,11,23,00,03,37.00
2010,11,23,00,04,37.00
2010,11,23,00,05,29.00
2010,11,23,00,06,40.20
2010,11,23,00,07,45.10
2010,11,23,00,08,45.10
2010,11,23,00,09,38.60
2010,11,23,00,10,41.80
2010,11,23,00,11,41.80
2010,11,23,00,12,43.50
2010,11,23,00,13,40.20
2010,11,23,00,14,43.50
2010,11,23,00,15,53.10
2010,11,23,00,16,46.70
2010,11,23,00,17,38.60
2010,11,23,00,18,51.50
2010,11,23,00,19,48.30
2010,11,23,00,20,43.50
2010,11,23,00,21,41.80
2010,11,23,00,22,41.80
2010,11,23,00,23,53.10
2010,11,23,00,24,45.10
2010,11,23,00,25,48.30
2010,11,23,00,26,40.20
2010,11,23,00,27,40.20
2010,11,23,00,28,35.40
2010,11,23,00,29,51.50
2010,11,23,00,30,43.50
2010,11,23,00,31,41.80
2010,11,23,00,32,38.60
2010,11,23,00,33,41.80
2010,11,23,00,34,40.20
2010,11,23,00,35,43.50
2010,11,23,00,36,45.10
2010,11,23,00,37,51.50
2010,11,23,00,38,41.80
2010,11,23,00,39,43.50
2010,11,23,00,40,40.20
2010,11,23,00,41,33.80
2010,11,23,00,42,38.60
2010,11,23,00,43,41.80
2010,11,23,00,44,40.20
2010,11,23,00,45,48.30
2010,11,23,00,46,40.20
2010,11,23,00,47,46.70
2010,11,23,00,48,37.00
2010,11,23,00,49,29.00
2010,11,23,00,50,35.40
2010,11,23,00,51,27.40
2010,11,23,00,52,30.60
2010,11,23,00,53,41.80
2010,11,23,00,54,49.90
2010,11,23,00,55,45.10
2010,11,23,00,56,37.00
2010,11,23,00,57,40.20
2010,11,23,00,58,43.50
2010,11,23,00,59,49.90
2010,11,23,01,00,46.70
2010,11,23,01,01,35.40
2010,11,23,01,02,37.00
2010,11,23,01,03,41.80
2010,11,23,01,04,43.50
2010,11,23,01,05,40.20
2010,11,23,01,06,37.00
2010,11,23,01,07,32.20
2010,11,23,01,08,35.40
2010,11,23,01,09,35.40
2010,11,23,01,10,35.40
2010,11,23,01,11,38.60
2010,11,23,01,12,40.20
2010,11,23,01,13,30.60
2010,11,23,01,14,51.50
2010,11,23,01,15,37.00
2010,11,23,01,16,32.20
2010,11,23,01,17,38.60
2010,11,23,01,18,29.00
2010,11,23,01,19,35.40
2010,11,23,01,20,40.20
2010,11,23,01,21,32.20
2010,11,23,01,22,33.80
2010,11,23,01,23,33.80
2010,11,23,01,24,48.30
2010,11,23,01,25,35.40
2010,11,23,01,26,30.60
2010,11,23,01,27,33.80
2010,11,23,01,28,35.40
2010,11,23,01,29,38.60
2010,11,23,01,30,32.20
2010,11,23,01,31,43.50
2010,11,23,01,32,40.20
2010,11,23,01,33,40.20
2010,11,23,01,34,33.80
2010,11,23,01,35,38.60
2010,11,23,01,36,35.40
2010,11,23,01,37,41.80
2010,11,23,01,38,43.50
2010,11,23,01,39,45.10
2010,11,23,01,40,45.10
2010,11,23,01,41,40.20
2010,11,23,01,42,40.20
2010,11,23,01,43,41.80
2010,11,23,01,44,40.20
2010,11,23,01,45,33.80
2010,11,23,01,46,37.00
2010,11,23,01,47,37.00
2010,11,23,01,48,45.10
2010,11,23,01,49,35.40
2010,11,23,01,50,35.40
2010,11,23,01,51,40.20
2010,11,23,01,52,45.10
2010,11,23,01,53,37.00
2010,11,23,01,54,35.40
2010,11,23,01,55,40.20
2010,11,23,01,56,43.50
2010,11,23,01,57,35.40
2010,11,23,01,58,29.00
2010,11,23,01,59,40.20
2010,11,23,02,00,41.80
2010,11,23,02,01,35.40
2010,11,23,02,02,33.80
2010,11,23,02,03,29.00
2010,11,23,02,04,29.00
2010,11,23,02,05,40.20
2010,11,23,02,06,37.00
2010,11,23,02,07,33.80
2010,11,23,02,08,40.20
2010,11,23,02,09,41.80
2010,11,23,02,10,32.20
2010,11,23,02,11,38.60
2010,11,23,02,12,40.20
2010,11,23,02,13,38.60
2010,11,23,02,14,37.00
2010,11,23,02,15,37.00
2010,11,23,02,16,37.00
2010,11,23,02,17,45.10
2010,11,23,02,18,38.60
2010,11,23,02,19,32.20
2010,11,23,02,20,48.30
2010,11,23,02,21,35.40
2010,11,23,02,22,40.20
2010,11,23,02,23,41.80
2010,11,23,02,24,45.10
2010,11,23,02,25,45.10
2010,11,23,02,26,45.10
2010,11,23,02,27,43.50
2010,11,23,02,28,35.40
2010,11,23,02,29,35.40
2010,11,23,02,30,38.60
2010,11,23,02,31,37.00
2010,11,23,02,32,38.60
2010,11,23,02,33,43.50
2010,11,23,02,34,35.40
2010,11,23,02,35,32.20
2010,11,23,02,36,33.80
2010,11,23,02,37,27.40
2010,11,23,02,38,35.40
2010,11,23,02,39,33.80
2010,11,23,02,40,35.40
2010,11,23,02,41,25.70
2010,11,23,02,42,25.70
2010,11,23,02,43,35.40
2010,11,23,02,44,38.60
2010,11,23,02,45,33.80
2010,11,23,02,46,30.60
2010,11,23,02,47,33.80
2010,11,23,02,48,30.60
2010,11,23,02,49,29.00
2010,11,23,02,50,25.70
2010,11,23,02,51,32.20
2010,11,23,02,52,30.60
2010,11,23,02,53,33.80
2010,11,23,02,54,25.70
2010,11,23,02,55,30.60
2010,11,23,02,56,29.00
2010,11,23,02,57,35.40
2010,11,23,02,58,35.40
2010,11,23,02,59,20.90
2010,11,23,03,00,35.40
2010,11,23,03,01,48.30
2010,11,23,03,02,32.20
2010,11,23,03,03,38.60
2010,11,23,03,04,37.00
2010,11,23,03,05,43.50
2010,11,23,03,06,33.80
2010,11,23,03,07,37.00
2010,11,23,03,08,29.00
2010,11,23,03,09,25.70
2010,11,23,03,10,33.80
2010,11,23,03,11,29.00
2010,11,23,03,12,27.40
2010,11,23,03,13,33.80
2010,11,23,03,14,33.80
2010,11,23,03,15,29.00
2010,11,23,03,16,27.40
2010,11,23,03,17,25.70
2010,11,23,03,18,27.40
2010,11,23,03,19,32.20
2010,11,23,03,20,30.60
2010,11,23,03,21,24.20
2010,11,23,03,22,35.40
2010,11,23,03,23,32.20
2010,11,23,03,24,29.00
2010,11,23,03,25,32.20
2010,11,23,03,26,29.00
2010,11,23,03,27,40.20
2010,11,23,03,28,35.40
2010,11,23,03,29,25.70
2010,11,23,03,30,25.70
2010,11,23,03,31,33.80
2010,11,23,03,32,27.40
2010,11,23,03,33,32.20
2010,11,23,03,34,29.00
2010,11,23,03,35,30.60
2010,11,23,03,36,32.20
2010,11,23,03,37,33.80
2010,11,23,03,38,33.80
2010,11,23,03,39,33.80
2010,11,23,03,40,33.80
2010,11,23,03,41,35.40
2010,11,23,03,42,38.60
2010,11,23,03,43,40.20
2010,11,23,03,44,33.80
2010,11,23,03,45,30.60
2010,11,23,03,46,32.20
2010,11,23,03,47,37.00
2010,11,23,03,48,32.20
2010,11,23,03,49,29.00
2010,11,23,03,50,29.00
2010,11,23,03,51,38.60
2010,11,23,03,52,37.00
2010,11,23,03,53,32.20
2010,11,23,03,54,24.20
2010,11,23,03,55,30.60
2010,11,23,03,56,25.70
2010,11,23,03,57,25.70
2010,11,23,03,58,29.00
2010,11,23,03,59,30.60
2010,11,23,04,00,25.70
2010,11,23,04,01,25.70
2010,11,23,04,02,29.00
2010,11,23,04,03,37.00
2010,11,23,04,04,32.20
2010,11,23,04,05,32.20
2010,11,23,04,06,29.00
2010,11,23,04,07,30.60
2010,11,23,04,08,24.20
2010,11,23,04,09,25.70
2010,11,23,04,10,25.70
2010,11,23,04,11,32.20
2010,11,23,04,12,24.20
2010,11,23,04,13,25.70
2010,11,23,04,14,22.50
2010,11,23,04,15,24.20
2010,11,23,04,16,27.40
2010,11,23,04,17,33.80
2010,11,23,04,18,33.80
2010,11,23,04,19,30.60
2010,11,23,04,20,37.00
2010,11,23,04,21,30.60
2010,11,23,04,22,22.50
2010,11,23,04,23,22.50
2010,11,23,04,24,24.20
2010,11,23,04,25,27.40
2010,11,23,04,26,30.60
2010,11,23,04,27,24.20
2010,11,23,04,28,24.20
2010,11,23,04,29,29.00
2010,11,23,04,30,27.40
2010,11,23,04,31,25.70
2010,11,23,04,32,32.20
2010,11,23,04,33,33.80
2010,11,23,04,34,22.50
2010,11,23,04,35,24.20
2010,11,23,04,36,19.30
2010,11,23,04,37,19.30
2010,11,23,04,38,30.60
2010,11,23,04,39,25.70
2010,11,23,04,40,33.80
2010,11,23,04,41,24.20
2010,11,23,04,42,25.70
2010,11,23,04,43,27.40
2010,11,23,04,44,27.40
2010,11,23,04,45,33.80
2010,11,23,04,46,27.40
2010,11,23,04,47,24.20
2010,11,23,04,48,27.40
2010,11,23,04,49,30.60
2010,11,23,04,50,27.40
2010,11,23,04,51,24.20
2010,11,23,04,52,27.40
2010,11,23,04,53,25.70
2010,11,23,04,54,24.20
2010,11,23,04,55,29.00
2010,11,23,04,56,20.90
2010,11,23,04,57,20.90
2010,11,23,04,58,22.50
2010,11,23,04,59,32.20
2010,11,23,05,00,22.50
2010,11,23,05,01,30.60
2010,11,23,05,02,22.50
2010,11,23,05,03,30.60
2010,11,23,05,04,25.70
2010,11,23,05,05,20.90
2010,11,23,05,06,22.50
2010,11,23,05,07,24.20
2010,11,23,05,08,19.30
2010,11,23,05,09,22.50
2010,11,23,05,10,30.60
2010,11,23,05,11,27.40
2010,11,23,05,12,27.40
2010,11,23,05,13,29.00
2010,11,23,05,14,22.50
2010,11,23,05,15,27.40
2010,11,23,05,16,29.00
2010,11,23,05,17,20.90
2010,11,23,05,18,24.20
2010,11,23,05,19,27.40
2010,11,23,05,20,24.20
2010,11,23,05,21,25.70
2010,11,23,05,22,33.80
2010,11,23,05,23,25.70
2010,11,23,05,24,27.40
2010,11,23,05,25,29.00
2010,11,23,05,26,27.40
2010,11,23,05,27,19.30
2010,11,23,05,28,20.90
2010,11,23,05,29,30.60
2010,11,23,05,30,20.90
2010,11,23,05,31,29.00
2010,11,23,05,32,30.60
2010,11,23,05,33,27.40
2010,11,23,05,34,24.20
2010,11,23,05,35,32.20
2010,11,23,05,36,25.70
2010,11,23,05,37,33.80
2010,11,23,05,38,27.40
2010,11,23,05,39,25.70
2010,11,23,05,40,30.60
2010,11,23,05,41,32.20
2010,11,23,05,42,24.20
2010,11,23,05,43,29.00
2010,11,23,05,44,30.60
2010,11,23,05,45,29.00
2010,11,23,05,46,20.90
2010,11,23,05,47,30.60
2010,11,23,05,48,35.40
2010,11,23,05,49,29.00
2010,11,23,05,50,35.40
2010,11,23,05,51,30.60
2010,11,23,05,52,20.90
2010,11,23,05,53,22.50
2010,11,23,05,54,27.40
2010,11,23,05,55,32.20
2010,11,23,05,56,35.40
2010,11,23,05,57,25.70
2010,11,23,05,58,24.20
2010,11,23,05,59,22.50
2010,11,23,06,00,24.20
2010,11,23,06,01,29.00
2010,11,23,06,02,35.40
2010,11,23,06,03,24.20
2010,11,23,06,04,30.60
2010,11,23,06,05,25.70
2010,11,23,06,06,29.00
2010,11,23,06,07,30.60
2010,11,23,06,08,24.20
2010,11,23,06,09,19.30
2010,11,23,06,10,17.70
2010,11,23,06,11,25.70
2010,11,23,06,12,25.70
2010,11,23,06,13,16.10
2010,11,23,06,14,25.70
2010,11,23,06,15,17.70
2010,11,23,06,16,24.20
2010,11,23,06,17,17.70
2010,11,23,06,18,20.90
2010,11,23,06,19,22.50
2010,11,23,06,20,24.20
2010,11,23,06,21,29.00
2010,11,23,06,22,25.70
2010,11,23,06,23,19.30
2010,11,23,06,24,20.90
2010,11,23,06,25,16.10
2010,11,23,06,26,17.70
2010,11,23,06,27,27.40
2010,11,23,06,28,24.20
2010,11,23,06,29,30.60
2010,11,23,06,30,33.80
2010,11,23,06,31,35.40
2010,11,23,06,32,41.80
2010,11,23,06,33,32.20
2010,11,23,06,34,33.80
2010,11,23,06,35,30.60
2010,11,23,06,36,27.40
2010,11,23,06,37,27.40
2010,11,23,06,38,29.00
2010,11,23,06,39,27.40
2010,11,23,06,40,37.00
2010,11,23,06,41,25.70
2010,11,23,06,42,25.70
2010,11,23,06,43,29.00
2010,11,23,06,44,25.70
2010,11,23,06,45,24.20
2010,11,23,06,46,33.80
2010,11,23,06,47,30.60
2010,11,23,06,48,38.60
2010,11,23,06,49,30.60
2010,11,23,06,50,33.80
2010,11,23,06,51,24.20
2010,11,23,06,52,32.20
2010,11,23,06,53,32.20
2010,11,23,06,54,38.60
2010,11,23,06,55,20.90
2010,11,23,06,56,25.70
2010,11,23,06,57,32.20
2010,11,23,06,58,32.20
2010,11,23,06,59,37.00
2010,11,23,07,00,32.20
2010,11,23,07,01,37.00
2010,11,23,07,02,24.20
2010,11,23,07,03,25.70
2010,11,23,07,04,32.20
2010,11,23,07,05,25.70
2010,11,23,07,06,37.00
2010,11,23,07,07,27.40
2010,11,23,07,08,30.60
2010,11,23,07,09,25.70
2010,11,23,07,10,35.40
2010,11,23,07,11,37.00
2010,11,23,07,12,35.40
2010,11,23,07,13,25.70
2010,11,23,07,14,25.70
2010,11,23,07,15,17.70
2010,11,23,07,16,25.70
2010,11,23,07,17,25.70
2010,11,23,07,18,29.00
2010,11,23,07,19,25.70
2010,11,23,07,20,27.40
2010,11,23,07,21,22.50
2010,11,23,07,22,25.70
2010,11,23,07,23,20.90
2010,11,23,07,24,19.30
2010,11,23,07,25,22.50
2010,11,23,07,26,22.50
2010,11,23,07,27,22.50
2010,11,23,07,28,24.20
2010,11,23,07,29,22.50
2010,11,23,07,30,22.50
2010,11,23,07,31,24.20
2010,11,23,07,32,27.40
2010,11,23,07,33,29.00
2010,11,23,07,34,25.70
2010,11,23,07,35,22.50
2010,11,23,07,36,22.50
2010,11,23,07,37,27.40
2010,11,23,07,38,24.20
2010,11,23,07,39,24.20
2010,11,23,07,40,20.90
2010,11,23,07,41,16.10
2010,11,23,07,42,20.90
2010,11,23,07,43,19.30
2010,11,23,07,44,25.70
2010,11,23,07,45,19.30
2010,11,23,07,46,17.70
2010,11,23,07,47,16.10
2010,11,23,07,48,22.50
2010,11,23,07,49,24.20
2010,11,23,07,50,22.50
2010,11,23,07,51,19.30
2010,11,23,07,52,25.70
2010,11,23,07,53,24.20
2010,11,23,07,54,25.70
2010,11,23,07,55,19.30
2010,11,23,07,56,20.90
2010,11,23,07,57,14.50
2010,11,23,07,58,22.50
2010,11,23,07,59,20.90
2010,11,23,08,00,32.20
2010,11,23,08,01,27.40
2010,11,23,08,02,25.70
2010,11,23,08,03,22.50
2010,11,23,08,04,17.70
2010,11,23,08,05,24.20
2010,11,23,08,06,16.10
2010,11,23,08,07,17.70
2010,11,23,08,08,24.20
2010,11,23,08,09,19.30
2010,11,23,08,10,29.00
2010,11,23,08,11,22.50
2010,11,23,08,12,17.70
2010,11,23,08,13,20.90
2010,11,23,08,14,22.50
2010,11,23,08,15,22.50
2010,11,23,08,16,16.10
2010,11,23,08,17,17.70
2010,11,23,08,18,17.70
2010,11,23,08,19,19.30
2010,11,23,08,20,17.70
2010,11,23,08,21,16.10
2010,11,23,08,22,11.30
2010,11,23,08,23,17.70
2010,11,23,08,24,19.30
2010,11,23,08,25,16.10
2010,11,23,08,26,14.50
2010,11,23,08,27,9.60
2010,11,23,08,28,16.10
2010,11,23,08,29,16.10
2010,11,23,08,30,20.90
2010,11,23,08,31,20.90
2010,11,23,08,32,19.30
2010,11,23,08,33,20.90
2010,11,23,08,34,11.30
2010,11,23,08,35,20.90
2010,11,23,08,36,19.30
2010,11,23,08,37,11.30
2010,11,23,08,38,17.70
2010,11,23,08,39,22.50
2010,11,23,08,40,17.70
2010,11,23,08,41,16.10
2010,11,23,08,42,17.70
2010,11,23,08,43,19.30
2010,11,23,08,44,11.30
2010,11,23,08,45,20.90
2010,11,23,08,46,16.10
2010,11,23,08,47,17.70
2010,11,23,08,48,17.70
2010,11,23,08,49,16.10
2010,11,23,08,50,9.60
2010,11,23,08,51,20.90
2010,11,23,08,52,20.90
2010,11,23,08,53,17.70
2010,11,23,08,54,19.30
2010,11,23,08,55,17.70
2010,11,23,08,56,19.30
2010,11,23,08,57,19.30
2010,11,23,08,58,24.20
2010,11,23,08,59,24.20
2010,11,23,09,00,20.90
2010,11,23,09,01,17.70
2010,11,23,09,02,19.30
2010,11,23,09,03,17.70
2010,11,23,09,04,19.30
2010,11,23,09,05,17.70
2010,11,23,09,06,9.60
2010,11,23,09,07,22.50
2010,11,23,09,08,17.70
2010,11,23,09,09,16.10
2010,11,23,09,10,14.50
2010,11,23,09,11,14.50
2010,11,23,09,12,9.60
2010,11,23,09,13,16.10
2010,11,23,09,14,16.10
2010,11,23,09,15,16.10
2010,11,23,09,16,16.10
2010,11,23,09,17,17.70
2010,11,23,09,18,16.10
2010,11,23,09,19,9.60
2010,11,23,09,20,9.60
2010,11,23,09,21,17.70
2010,11,23,09,22,16.10
2010,11,23,09,23,16.10
2010,11,23,09,24,11.30
2010,11,23,09,25,12.90
2010,11,23,09,26,9.60
2010,11,23,09,27,11.30
2010,11,23,09,28,6.40
2010,11,23,09,29,12.90
2010,11,23,09,30,17.70
2010,11,23,09,31,17.70
2010,11,23,09,32,16.10
2010,11,23,09,33,9.60
2010,11,23,09,34,16.10
2010,11,23,09,35,11.30
2010,11,23,09,36,16.10
2010,11,23,09,37,6.40
2010,11,23,09,38,4.80
2010,11,23,09,39,4.80
2010,11,23,09,40,14.50
2010,11,23,09,41,11.30
2010,11,23,09,42,8.10
2010,11,23,09,43,6.40
2010,11,23,09,44,8.10
2010,11,23,09,45,6.40
2010,11,23,09,46,9.60
2010,11,23,09,47,9.60
2010,11,23,09,48,8.10
2010,11,23,09,49,8.10
2010,11,23,09,50,4.80
2010,11,23,09,51,8.10
2010,11,23,09,52,6.40
2010,11,23,09,53,8.10
2010,11,23,09,54,9.60
2010,11,23,09,55,8.10
2010,11,23,09,56,14.50
2010,11,23,09,57,19.30
2010,11,23,09,58,16.10
2010,11,23,09,59,9.60
2010,11,23,10,00,11.30
2010,11,23,10,01,14.50
2010,11,23,10,02,16.10
2010,11,23,10,03,12.90
2010,11,23,10,04,14.50
2010,11,23,10,05,16.10
2010,11,23,10,06,14.50
2010,11,23,10,07,19.30
2010,11,23,10,08,19.30
2010,11,23,10,09,16.10
2010,11,23,10,10,16.10
2010,11,23,10,11,16.10
2010,11,23,10,12,14.50
2010,11,23,10,13,8.10
2010,11,23,10,14,4.80
2010,11,23,10,15,6.40
2010,11,23,10,16,14.50
2010,11,23,10,17,14.50
2010,11,23,10,18,19.30
2010,11,23,10,19,16.10
2010,11,23,10,20,9.60
2010,11,23,10,21,16.10
2010,11,23,10,22,16.10
2010,11,23,10,23,14.50
2010,11,23,10,24,16.10
2010,11,23,10,25,16.10
2010,11,23,10,26,9.60
2010,11,23,10,27,9.60
2010,11,23,10,28,8.10
2010,11,23,10,29,9.60
2010,11,23,10,30,14.50
2010,11,23,10,31,11.30
2010,11,23,10,32,12.90
2010,11,23,10,33,4.80
2010,11,23,10,34,4.80
2010,11,23,10,35,4.80
2010,11,23,10,36,9.60
2010,11,23,10,37,9.60
2010,11,23,10,38,8.10
2010,11,23,10,39,19.30
2010,11,23,10,40,16.10
2010,11,23,10,41,17.70
2010,11,23,10,42,17.70
2010,11,23,10,43,16.10
2010,11,23,10,44,14.50
2010,11,23,10,45,12.90
2010,11,23,10,46,9.60
2010,11,23,10,47,16.10
2010,11,23,10,48,9.60
2010,11,23,10,49,8.10
2010,11,23,10,50,8.10
2010,11,23,10,51,3.20
2010,11,23,10,52,8.10
2010,11,23,10,53,8.10
2010,11,23,10,54,6.40
2010,11,23,10,55,11.30
2010,11,23,10,56,11.30
2010,11,23,10,57,8.10
2010,11,23,10,58,6.40
2010,11,23,10,59,9.60
2010,11,23,11,00,8.10
2010,11,23,11,01,8.10
2010,11,23,11,02,8.10
2010,11,23,11,03,6.40
2010,11,23,11,04,8.10
2010,11,23,11,05,8.10
2010,11,23,11,06,17.70
2010,11,23,11,07,16.10
2010,11,23,11,08,9.60
2010,11,23,11,09,8.10
2010,11,23,11,10,11.30
2010,11,23,11,11,14.50
2010,11,23,11,12,14.50
2010,11,23,11,13,11.30
2010,11,23,11,14,14.50
2010,11,23,11,15,11.30
2010,11,23,11,16,16.10
2010,11,23,11,17,12.90
2010,11,23,11,18,16.10
2010,11,23,11,19,11.30
2010,11,23,11,20,9.60
2010,11,23,11,21,8.10
2010,11,23,11,22,4.80
2010,11,23,11,23,1.60
2010,11,23,11,24,3.20
2010,11,23,11,25,3.20
2010,11,23,11,26,8.10
2010,11,23,11,27,9.60
2010,11,23,11,28,4.80
2010,11,23,11,29,4.80
2010,11,23,11,30,11.30
2010,11,23,11,31,8.10
2010,11,23,11,32,19.30
2010,11,23,11,33,16.10
2010,11,23,11,34,8.10
2010,11,23,11,35,11.30
2010,11,23,11,36,14.50
2010,11,23,11,37,17.70
2010,11,23,11,38,14.50
2010,11,23,11,39,16.10
2010,11,23,11,40,11.30
2010,11,23,11,41,8.10
2010,11,23,11,42,6.40
2010,11,23,11,43,3.20
2010,11,23,11,44,8.10
2010,11,23,11,45,6.40
2010,11,23,11,46,4.80
2010,11,23,11,47,6.40
2010,11,23,11,48,9.60
2010,11,23,11,49,16.10
2010,11,23,11,50,9.60
2010,11,23,11,51,11.30
2010,11,23,11,52,9.60
2010,11,23,11,53,11.30
2010,11,23,11,54,6.40
2010,11,23,11,55,4.80
2010,11,23,11,56,3.20
2010,11,23,11,57,8.10
2010,11,23,11,58,14.50
2010,11,23,11,59,17.70
2010,11,23,12,00,11.30
2010,11,23,12,01,8.10
2010,11,23,12,02,8.10
2010,11,23,12,03,8.10
2010,11,23,12,04,4.80
2010,11,23,12,05,9.60
2010,11,23,12,06,4.80
2010,11,23,12,07,6.40
2010,11,23,12,08,9.60
2010,11,23,12,09,17.70
2010,11,23,12,10,14.50
2010,11,23,12,11,14.50
2010,11,23,12,12,9.60
2010,11,23,12,13,14.50
2010,11,23,12,14,12.90
2010,11,23,12,15,11.30
2010,11,23,12,16,8.10
2010,11,23,12,17,11.30
2010,11,23,12,18,8.10
2010,11,23,12,19,9.60
2010,11,23,12,20,3.20
2010,11,23,12,21,11.30
2010,11,23,12,22,12.90
2010,11,23,12,23,12.90
2010,11,23,12,24,12.90
2010,11,23,12,25,9.60
2010,11,23,12,26,8.10
2010,11,23,12,27,17.70
2010,11,23,12,28,16.10
2010,11,23,12,29,12.90
2010,11,23,12,30,8.10
2010,11,23,12,31,4.80
2010,11,23,12,32,9.60
2010,11,23,12,33,9.60
2010,11,23,12,34,8.10
2010,11,23,12,35,14.50
2010,11,23,12,36,16.10
2010,11,23,12,37,19.30
2010,11,23,12,38,17.70
2010,11,23,12,39,11.30
2010,11,23,12,40,9.60
2010,11,23,12,41,9.60
2010,11,23,12,42,6.40
2010,11,23,12,43,19.30
2010,11,23,12,44,16.10
2010,11,23,12,45,16.10
2010,11,23,12,46,9.60
2010,11,23,12,47,9.60
2010,11,23,12,48,16.10
2010,11,23,12,49,17.70
2010,11,23,12,50,16.10
2010,11,23,12,51,11.30
2010,11,23,12,52,12.90
2010,11,23,12,53,9.60
2010,11,23,12,54,14.50
2010,11,23,12,55,17.70
2010,11,23,12,56,19.30
2010,11,23,12,57,17.70
2010,11,23,12,58,14.50
2010,11,23,12,59,9.60
2010,11,23,13,00,11.30
2010,11,23,13,01,9.60
2010,11,23,13,02,4.80
2010,11,23,13,03,19.30
2010,11,23,13,04,17.70
2010,11,23,13,05,14.50
2010,11,23,13,06,17.70
2010,11,23,13,07,14.50
2010,11,23,13,08,14.50
2010,11,23,13,09,17.70
2010,11,23,13,10,17.70
2010,11,23,13,11,16.10
2010,11,23,13,12,11.30
2010,11,23,13,13,9.60
2010,11,23,13,14,9.60
2010,11,23,13,15,8.10
2010,11,23,13,16,11.30
2010,11,23,13,17,16.10
2010,11,23,13,18,11.30
2010,11,23,13,19,11.30
2010,11,23,13,20,8.10
2010,11,23,13,21,16.10
2010,11,23,13,22,14.50
2010,11,23,13,23,14.50
2010,11,23,13,24,9.60
2010,11,23,13,25,9.60
2010,11,23,13,26,9.60
2010,11,23,13,27,9.60
2010,11,23,13,28,8.10
2010,11,23,13,29,16.10
2010,11,23,13,30,12.90
2010,11,23,13,31,16.10
2010,11,23,13,32,17.70
2010,11,23,13,33,16.10
2010,11,23,13,34,11.30
2010,11,23,13,35,12.90
2010,11,23,13,36,6.40
2010,11,23,13,37,9.60
2010,11,23,13,38,8.10
2010,11,23,13,39,6.40
2010,11,23,13,40,14.50
2010,11,23,13,41,14.50
2010,11,23,13,42,14.50
2010,11,23,13,43,9.60
2010,11,23,13,44,12.90
2010,11,23,13,45,17.70
2010,11,23,13,46,14.50
2010,11,23,13,47,9.60
2010,11,23,13,48,4.80
2010,11,23,13,49,8.10
2010,11,23,13,50,8.10
2010,11,23,13,51,11.30
2010,11,23,13,52,17.70
2010,11,23,13,53,14.50
2010,11,23,13,54,16.10
2010,11,23,13,55,12.90
2010,11,23,13,56,6.40
2010,11,23,13,57,9.60
2010,11,23,13,58,16.10
2010,11,23,13,59,12.90
2010,11,23,14,00,14.50
2010,11,23,14,01,12.90
2010,11,23,14,02,8.10
2010,11,23,14,03,8.10
2010,11,23,14,04,4.80
2010,11,23,14,05,12.90
2010,11,23,14,06,6.40
2010,11,23,14,07,16.10
2010,11,23,14,08,6.40
2010,11,23,14,09,6.40
2010,11,23,14,10,8.10
2010,11,23,14,11,14.50
2010,11,23,14,12,17.70
2010,11,23,14,13,14.50
2010,11,23,14,14,9.60
2010,11,23,14,15,9.60
2010,11,23,14,16,6.40
2010,11,23,14,17,6.40
2010,11,23,14,18,4.80
2010,11,23,14,19,3.20
2010,11,23,14,20,9.60
2010,11,23,14,21,14.50
2010,11,23,14,22,6.40
2010,11,23,14,23,8.10
2010,11,23,14,24,8.10
2010,11,23,14,25,12.90
2010,11,23,14,26,6.40
2010,11,23,14,27,8.10
2010,11,23,14,28,9.60
2010,11,23,14,29,8.10
2010,11,23,14,30,4.80
2010,11,23,14,31,4.80
2010,11,23,14,33,1.60
2010,11,23,14,34,4.80
2010,11,23,14,35,14.50
2010,11,23,14,36,11.30
2010,11,23,14,37,9.60
2010,11,23,14,38,11.30
2010,11,23,14,39,14.50
2010,11,23,14,40,9.60
2010,11,23,14,41,14.50
2010,11,23,14,42,9.60
2010,11,23,14,43,4.80
2010,11,23,14,44,8.10
2010,11,23,14,45,4.80
2010,11,23,14,46,1.60
2010,11,23,14,47,4.80
2010,11,23,14,48,6.40
2010,11,23,14,49,4.80
2010,11,23,14,50,6.40
2010,11,23,14,51,8.10
2010,11,23,14,52,1.60
2010,11,23,14,53,6.40
2010,11,23,14,54,4.80
2010,11,23,14,55,11.30
2010,11,23,14,56,4.80
2010,11,23,14,57,4.80
2010,11,23,14,58,1.60
2010,11,23,15,02,4.80
2010,11,23,15,03,6.40
2010,11,23,15,04,4.80
2010,11,23,15,05,6.40
2010,11,23,15,06,4.80
2010,11,23,15,07,4.80
2010,11,23,15,08,6.40
2010,11,23,15,09,6.40
2010,11,23,15,10,6.40
2010,11,23,15,11,4.80
2010,11,23,15,12,4.80
2010,11,23,15,13,4.80
2010,11,23,15,14,3.20
2010,11,23,15,15,3.20
2010,11,23,15,16,3.20
2010,11,23,15,17,3.20
2010,11,23,15,18,3.20
2010,11,23,15,24,1.60
2010,11,23,15,25,1.60
2010,11,23,15,26,1.60
2010,11,23,15,27,1.60
2010,11,23,15,28,3.20
2010,11,23,15,29,1.60
2010,11,23,15,43,1.60
2010,11,23,15,49,1.60
2010,11,23,16,09,1.60
2010,11,23,17,22,1.60
2010,11,23,17,24,1.60
2010,11,23,17,25,1.60
2010,11,23,17,30,1.60
2010,11,23,17,33,1.60
2010,11,23,17,36,1.60
2010,11,23,17,37,1.60
2010,11,23,17,38,1.60
2010,11,23,17,39,1.60
2010,11,23,17,41,1.60
2010,11,23,17,42,1.60
2010,11,23,17,43,3.20
2010,11,23,17,44,3.20
2010,11,23,17,45,3.20
2010,11,23,17,46,3.20
2010,11,23,17,47,3.20
2010,11,23,17,48,3.20
2010,11,23,17,54,1.60
2010,11,23,17,57,1.60
2010,11,23,17,58,1.60
2010,11,23,17,59,1.60
2010,11,23,18,01,1.60
2010,11,23,18,02,1.60
2010,11,23,18,04,3.20
2010,11,23,18,05,3.20
2010,11,23,18,06,1.60
2010,11,23,18,11,1.60
2010,11,23,18,12,1.60
2010,11,23,18,17,1.60
2010,11,23,19,20,1.60
2010,11,23,19,21,1.60
2010,11,23,19,22,3.20
2010,11,23,19,23,3.20
2010,11,23,19,24,3.20
2010,11,23,19,25,3.20
2010,11,23,19,26,1.60
2010,11,23,19,27,1.60
2010,11,23,19,28,1.60
2010,11,23,19,29,3.20
2010,11,23,19,30,3.20
2010,11,23,19,31,3.20
2010,11,23,19,32,3.20
2010,11,23,19,33,1.60
2010,11,23,19,34,1.60
2010,11,23,19,50,1.60
2010,11,23,20,13,1.60
2010,11,23,20,18,4.80
2010,11,23,20,19,3.20
2010,11,23,20,21,1.60
2010,11,23,20,22,1.60
2010,11,23,20,23,1.60
2010,11,23,20,24,1.60
2010,11,23,20,25,1.60
2010,11,23,20,26,1.60
2010,11,23,20,27,1.60
2010,11,23,20,28,3.20
2010,11,23,20,29,1.60
2010,11,23,20,34,3.20
2010,11,23,20,35,3.20
2010,11,23,20,36,3.20
2010,11,23,20,37,3.20
2010,11,23,20,38,3.20
2010,11,23,20,39,1.60
2010,11,23,20,40,3.20
2010,11,23,20,41,1.60
2010,11,23,20,55,1.60
2010,11,23,20,59,1.60
2010,11,23,21,01,1.60
2010,11,23,21,03,1.60
2010,11,23,21,06,1.60
2010,11,23,21,07,1.60
2010,11,23,21,09,1.60
2010,11,23,21,13,1.60
2010,11,23,21,17,1.60
2010,11,23,21,19,1.60
2010,11,23,21,21,3.20
2010,11,23,21,22,3.20
2010,11,23,21,23,3.20
2010,11,23,21,24,1.60
2010,11,23,21,30,1.60
2010,11,23,21,31,3.20
2010,11,23,21,32,3.20
2010,11,23,21,33,3.20
2010,11,23,21,34,1.60
2010,11,23,21,35,3.20
2010,11,23,21,36,3.20
2010,11,23,21,37,1.60
2010,11,23,21,38,1.60
2010,11,23,21,39,1.60
2010,11,23,21,40,1.60
2010,11,23,21,41,3.20
2010,11,23,21,45,1.60
2010,11,23,21,46,3.20
2010,11,23,21,47,4.80
2010,11,23,21,48,4.80
2010,11,23,21,49,4.80
2010,11,23,21,50,4.80
2010,11,23,21,51,4.80
2010,11,23,21,52,4.80
2010,11,23,21,53,3.20
2010,11,23,21,54,1.60
2010,11,23,21,57,1.60
2010,11,23,21,58,1.60
2010,11,23,21,59,1.60
2010,11,23,22,08,1.60
2010,11,23,22,11,1.60
2010,11,23,22,12,1.60
2010,11,23,22,13,1.60
2010,11,23,22,14,1.60
2010,11,23,22,16,1.60
2010,11,23,22,27,1.60
2010,11,23,22,28,1.60
2010,11,23,22,32,1.60
2010,11,23,22,34,1.60
2010,11,23,22,38,1.60
2010,11,23,22,41,1.60
2010,11,23,22,48,1.60
2010,11,23,22,50,1.60
2010,11,23,22,52,3.20
2010,11,23,22,54,4.80
2010,11,23,22,55,3.20
2010,11,23,22,56,1.60
2010,11,23,23,01,1.60
2010,11,23,23,04,1.60
2010,11,23,23,17,3.20
2010,11,23,23,18,4.80
2010,11,23,23,19,3.20
2010,11,23,23,20,3.20
2010,11,23,23,21,3.20
2010,11,23,23,22,3.20